Location: Martin
(32.0982°N, 93.2193°W)
Time: 04:30:03
(UTC+00:00)

ARIANE 6 FM1 Upper Stage - Pass Details

Date: 26 September 2024
Orbit: 563 x 594 km, 62.0° (Epoch: 11 October)

Event Time Altitude Azimuth Distance (km) Brightness Sun altitude
Rises 00:57:04 0° 246° (WSW) 2,764 7.3 -11.9°
Reaches altitude 10° 00:59:49 10° 265° (W) 1,877 6.7 -12.5°
Maximum altitude 01:02:52 19° 311° (NW) 1,396 5.4 -13.1°
Drops below altitude 10° 01:05:57 10° 357° (N) 1,899 5.5 -13.8°
Sets 01:08:46 0° 16° (NNE) 2,809 6.2 -14.4°
